Regional Weather Roundup
Issued by NWS Wakefield, VA

Home | Current Version | Previous Version | Graphics & Text | Print | Product List | Glossary On
Versions: 1 2 3 4 5 6 7 8 9 10 11 12 13 14 15 16 17 18 19 20 21 22 23 24 25 26 27
000
ASUS41 KAKQ 260314
RWRAKQ

REGIONAL WEATHER ROUNDUP
NATIONAL WEATHER SERVICE WAKEFIELD VA
1000 PM EST SAT FEB 25 2017

Note: "fair" indicates few or no clouds below 12,000 feet with no
significant weather and/or obstructions to visibility. * = Denotes
station may not report precipitation (e.g., rain,snow,etc.),
thunder or fog.

VAZ042-051-052>054-056-260400-
NORTHERN VIRGINIA

CITY           SKY/WX    TMP DP  RH WIND       PRES   REMARKS
WASH NATIONAL  PTCLDY    49  24  37 NW20G31   29.78R
DULLES         PTCLDY    45  23  42 NW16G25   29.78R
FORT BELVOIR   PTCLDY    49  24  36 NW15G21   29.78R
QUANTICO       PTCLDY    51  24  34 N15G28    29.77R
FREDERICKSBRG* MOCLDY    52  28  38 NW8       29.76R
STAFFORD*      PTCLDY    47  26  43 NW10G21   29.79R
WARRENTON      PTCLDY    48  18  31 NW9G16    29.77R
CULPEPER*      CLEAR     49  21  32 NW13G18   29.78R
MANASSAS*      CLEAR     46  25  43 NW22G30   29.79R
LEESBURG*      CLEAR     45  28  53 MISG      29.79R
WINCHESTER     CLEAR     39  21  48 W18G32    29.80R
FRONT ROYAL*   CLEAR     43  23  45 W16G22    29.78R
LURAY*         PTCLDY    43  25  49 NW16G24   29.82R
$$

VAZ048-049-060>072-079>083-260400-
CENTRAL AND SOUTH CENTRAL VIRGINIA

CITY           SKY/WX    TMP DP  RH WIND       PRES   REMARKS
RICHMOND       MOCLDY    55  25  31 NW20G25   29.76R
CHESTERFIELD*  MOCLDY    52  23  32 NW7       29.78R
PETERSBURG*    CLOUDY    54  22  29 W9G20     29.77R
HANOVER        CLOUDY    54  20  26 W10       29.78R
TAPPAHANNOCK*  CLOUDY    57  16  20 W8        29.75R
QUINTON*       NOT AVBL
CHARLOTTSVILLE CLEAR     48  18  30 W8G22     29.77R
GORDONSVILLE*  CLEAR     48  19  32 W8G20     29.77R
ORANGE*        CLEAR     45  21  39 SW8       29.78R
LOUISA*        CLEAR     54  25  32 NW13G18   29.77R
BUMPASS*       NOT AVBL
FARMVILLE*     CLEAR     51  23  33 W6        29.79R
CREWE*         FAIR      51  26  37 NW13      29.77R
FORT PICKETT*  NOT AVBL
CHASE CITY*    FAIR      51  20  29 W13G24    29.81R
CLARKSVILLE*   FAIR      54  28  37 NW12G20   29.80R
SOUTH HILL*    CLEAR     53  30  41 NW7       29.84R
LAWRENCEVILLE* FAIR      54  27  35 W10       29.77R
EMPORIA*       PTCLDY    55  28  35 W12G20    29.79R
$$

VAZ088>098-260400-
SOUTHEAST VIRGINIA

CITY           SKY/WX    TMP DP  RH WIND       PRES   REMARKS
NORFOLK        CLOUDY    54  46  74 N7        29.73R
VIRGINIA BEACH CLOUDY    54  45  71 N6        29.73R
NORFOLK NAVAL  CLOUDY    54  46  74 N7        29.75R
WEST POINT*    CLOUDY    57  33  39 NW9       29.74R
SALUDA*        CLOUDY    54  47  80 CALM      29.73R
NEWPORT NEWS   CLOUDY    60  40  47 W7        29.74R
LANGLEY AFB    CLOUDY    54  52  92 CALM      29.73R
FORT EUSTIS    CLOUDY    58  41  53 NW12      29.72R
WILLIAMSBURG*  CLOUDY    61  37  41 NW9       29.74R
HR EXEC AP*    CLOUDY    61  36  39 W12G18    29.75R
FRANKLIN*      CLOUDY    58  41  53 NW5       29.76R
US460-WAKEFLD  CLOUDY    58  30  34 W9        29.76R
$$

VAZ020-022-025-037-045-260400-
WEST CENTRAL AND SOUTHWEST VIRGINIA

CITY           SKY/WX    TMP DP  RH WIND       PRES   REMARKS
STAUNTON*      CLEAR     39  19  45 W3        29.84R
WAYNESBORO*    CLEAR     40  17  38 W12G20    29.81R
HOT SPRINGS VA CLOUDY    28  18  64 W25G40    29.77R WCI  14
LYNCHBURG      CLEAR     45  20  36 NW8G21    29.83R
DANVILLE       CLEAR     50  25  37 NW16G29   29.85R
SOUTH BOSTON*  FAIR      52  22  31 NW13G31   29.83R
MARTINSVILLE   CLEAR     45  14  29 W7        29.91R
ROANOKE        CLEAR     42  17  36 W26G38    29.90R
BLACKSBURG     CLEAR     36  20  51 W18G26    29.91R
DUBLIN*        CLEAR     37  19  49 NW22G29   29.92R
MARION*        CLEAR     35  18  50 W22G33    29.93R WCI  23
HILLSVILLE*    CLEAR     34  18  53 NW20G28   29.86R WCI  22
RICHLANDS*     FAIR      31  20  64 CALM      29.96R
WISE*          MOCLDY    32  19  59 NW9G16    30.00R
ABINGDON*      CLEAR     37  18  47 N6        29.99R
$$

MDZ021>025-VAZ099-100-260400-
SOUTHERN MARYLAND AND THE DELMARVA PENINSULA

CITY           SKY/WX    TMP DP  RH WIND       PRES   REMARKS
PATUXENT RIVER CLOUDY    52  35  52 NW16      29.72R
BAY BRIDGE APT PTCLDY    50  28  43 NW21G36   29.74R
LEONARDTOWN    MOCLDY    52  30  43 NW7       29.74R
DOVER          MOCLDY    51  50  99 NW10      29.67F
GEORGETOWN     CLOUDY    53  46  77 NW3       29.72R
EASTON         CLEAR     52  25  35 NW18G32   29.76R
CAMBRIDGE      MOCLDY    54  34  47 NW15G23   29.72R
SALISBURY      CLOUDY    52  41  66 NW9       29.69R
OCEAN CITY     CLOUDY    53  46  77 NW6       29.70R
WALLOPS ISLAND LGT RAIN  53  43  68 NW6       29.73R
ACCOMACK*      CLOUDY    54  46  76 N6        29.72R
$$

NCZ012>017-030>032-260400-
NORTH CENTRAL AND EASTERN NORTH CAROLINA

CITY           SKY/WX    TMP DP  RH WIND       PRES   REMARKS
ROANOKE RAPIDS FAIR      57  36  44 NW9G17    29.77R
RALEIGH        CLEAR     58  20  22 NW10G24   29.82R
ELIZABETH CITY CLOUDY    63  41  44 NW18G25   29.73R
AHOSKIE*         N/A     58  38  46 NW5       29.76R
EDENTON*       CLOUDY    64  44  47 NW7       29.74R
CURRITUCK*     CLOUDY    63  48  58 NW8       29.73R
KILL DEVIL HLS NOT AVBL
MANTEO         MOCLDY    63  52  67 N10G16    29.72R
CAPE HATTERAS  PTCLDY    67  60  78 SW17G29   29.70R HAZE
TARBORO*       NOT AVBL
GOLDSBORO      CLEAR     65  28  25 W12       29.76R
WASHINGTON     PTCLDY    62  43  49 NW8       29.76R
GREENVILLE     CLEAR     63  41  45 N8        29.79R
NEW BERN       CLEAR     65  58  78 SW9       29.74R
WILMINGTON     PTCLDY    65  50  58 W16       29.79R
$$

VAZ048-260400-
ELSEWHERE

CITY           SKY/WX    TMP DP  RH WIND       PRES   REMARKS
HARRISBURG PA  PTCLDY    43  25  49 NW21G31   29.74R
BALTIMORE      PTCLDY    47  27  45 NW21G30   29.74R
ANNAPOLIS      MOCLDY    51  28  41 NW16G28   29.74R
ANDREWS AFB    PTCLDY    48  24  39 NW26      29.76R
PHILADELPHIA   CLOUDY    51  44  77 W14       29.69R
HENDERSON NC   CLEAR     52  26  36 NW13G18   29.81R
GREENSBORO     CLEAR     49  17  28 NW22G29   29.86R
ROCKY MOUNT    CLEAR     60  32  34 NW8       29.78R
$$

VAZ100-260400-
MARINE

STATION/POSITION TIME  TEMP    WIND        PRES    WAVE   SWELL
                       AIR SEA DIR/SP/G            HT/PER HT/PER
                 (UTC) (F)     (DEG/KT/KT) (MB)    (FT/S) (FT/S)
CAPE MAY NJ      0248   48 47  320/  4/  8 1004.9R
LEWES DE         0248          340/  8/  9   N/A
OCEAN-CITY-INLET 0248          360/  7/  9   N/A
WACHAPREAGUE VA  0242   54 58  360/  6/ 10 1006.0R
THOMAS POINT MD  0300   51 44  320/ 20/ 23   N/A
GOOSES REEF MD   0250   50      10/ 19/ 25 1007.3R
COVE POINT MD    0242   50     350/ 18/ 20 1007.0R
SOLOMONS ISLAND  0248          320/ 13/ 19   N/A
BISHOPS HEAD MD  0248   53 55  330/ 11/ 12 1006.4R
PINEY POINT MD   0248          360/ 13/ 14   N/A
POTOMAC MD       0250   53     350/ 10/ 16 1005.2R
CAMBRIDGE MD     0248   53 46  320/ 15/ 20 1005.6R
LEWISETTA VA     0242   53 50  340/  5/  6 1005.9R
RAPPAHANNOCK LGT 0248          350/  8/  8 1006.8R
YORK RVR RNG VA  0242   53      40/ 11/ 12 1005.3R
YORKTOWN VA      0242   58 50  340/  8/ 10 1005.6R
JAMESTOWN VA     0250   58     300/ 14/ 16   N/A
DOMINION TERM VA 0242   57     300/ 10/ 11 1006.6R
KIPTOPEKE VA     0248      52   20/ 10/ 14   N/A
CHES BAY BRIDGE  0242   52 47   20/ 10/ 12 1006.5R
CAPE HENRY VA    0242   53     330/  6/  9   N/A
WILLOUBY STN VA  0242   53      30/ 13/ 14 1007.2R
S CRANEY ISL VA  0242   56      50/ 11/ 12 1006.1R
CAPE HENRY BUOY  0242      50                N/A     4/11   2/11
OFFSHORE WE BUOY 0251      50                N/A     5/11   2/11
64NM E OF VA BCH 0250   55 52  330/ 21/ 25 1004.5R   7/11   5/11
DUCK PIER NC     0242   63 47  310/ 13/ 16 1005.3R
44100 DUCK FRF   0235      50                N/A     5/10   2/11
44056 DUCK FRF   0230      50                N/A     4/11   2/11
OREGON INLET NC  0248          280/ 12/ 16   N/A
HATTERAS NC      0242   66 64  230/ 16/ 20 1005.4R
DIAMOND SHLS NC  0250   72 75  240/ 29/ 33 1005.2R  10/ 7
CAPE LOOKOUT NC  0200   66     230/ 16/ 23 1006.0R
$$




USA.gov is the U.S. government's official web portal to all federal, state and local government web resources and services.